This is the latest recevied weather packets stored in our database for station/object OE6JVE-13. If no packets are shown the sender has not sent any weather packets the latest 10 day(s).
| Time | Temp. | Humidity | Pressure | Rain* | Wind** | Luminosity | Snow |
|---|---|---|---|---|---|---|---|
| 1788174063 | 31.67° C | 34% | 1006.5 hPa | 0 mm | - | - | - |
| 1788173464 | 31.67° C | 35% | 1006.6 hPa | 0 mm | - | - | - |
| 1788172872 | 31.11° C | 37% | 1006.6 hPa | 0 mm | - | - | - |
| 1788172280 | 31.11° C | 38% | 1006.7 hPa | 0 mm | - | - | - |
| 1788171623 | 31.11° C | 37% | 1006.8 hPa | 0 mm | - | - | - |
| 1788171030 | 30° C | 40% | 1007.1 hPa | 0 mm | - | - | - |
| 1788170438 | 30° C | 41% | 1007.2 hPa | 0 mm | - | - | - |
| 1788169846 | 29.44° C | 41% | 1007.3 hPa | 0 mm | - | - | - |
| 1788169255 | 29.44° C | 43% | 1007.5 hPa | 0 mm | - | - | - |
| 1788168665 | 28.89° C | 44% | 1007.6 hPa | 0 mm | - | - | - |
| 1788168070 | 28.89° C | 43% | 1007.9 hPa | 0 mm | - | - | - |
| 1788167478 | 27.78° C | 49% | 1007.9 hPa | 0 mm | - | - | - |
| 1788166820 | 26.11° C | 55% | 1008 hPa | 0 mm | - | - | - |
| 1788166228 | 25.56° C | 57% | 1008 hPa | 0 mm | - | - | - |
| 1788165635 | 25° C | 58% | 1008.1 hPa | 0 mm | - | - | - |
| 1788165043 | 24.44° C | 60% | 1008.1 hPa | 0 mm | - | - | - |
| 1788164451 | 23.89° C | 62% | 1008 hPa | 0 mm | - | - | - |
| 1788163859 | 23.33° C | 63% | 1007.9 hPa | 0 mm | - | - | - |
| 1788163267 | 22.78° C | 67% | 1007.9 hPa | 0 mm | - | - | - |
| 1788162675 | 22.22° C | 71% | 1007.8 hPa | 0 mm | - | - | - |
| 1788162017 | 21.67° C | 75% | 1007.8 hPa | 0 mm | - | - | - |
| 1788161425 | 20.56° C | 81% | 1007.5 hPa | 0 mm | - | - | - |
| 1788160834 | 19.44° C | 93% | 1007.6 hPa | 0 mm | - | - | - |
| 1788160241 | 17.78° C | 96% | 1007.5 hPa | 0 mm | - | - | - |
| 1788159648 | 17.22° C | 97% | 1007.5 hPa | 0 mm | - | - | - |
* Rain latest hour (hover to see other rain measurements)
** Current wind speed in m/s (hover to see current wind gust speed)